Wind_Speed
11 12 14 14 14 12 10 10 12 14 13 13 13 13 12 11 10 8 6 6 5 6 6 7 10 15 19 18 17 16 16 15 13 9 10 11 15 17 21 21 19 19 17
9 10 13 14 14 13 9 8 10 14 15 16 17 15 14 12 10 8 7 6 5 6 7 7 9 15 20 20 17 16 14 14 13 7 4 5 6 9 13 18 17 18 17
6 8 11 14 14 13 9 6 8 12 15 18 20 18 14 12 10 8 6 6 6 7 7 7 3 13 20 20 18 16 14 13 11 7 6 5 6 7 8 12 14 15 14
4 6 9 12 13 12 9 6 8 10 13 17 20 19 15 12 10 8 8 7 7 7 5 4 2 3 14 21 20 19 16 13 10 10 10 9 7 7 9 11 12 13 12
4 4 7 11 12 11 10 7 7 10 12 16 19 20 17 13 11 10 10 9 9 7 5 4 2 4 9 19 23 21 17 14 12 10 10 10 8 8 11 8 6 8 6
7 4 5 9 10 10 9 8 6 8 11 15 18 20 19 15 12 9 8 10 10 9 6 4 2 3 4 10 19 24 20 16 14 11 9 9 9 8 10 9 6 6 5
8 6 3 5 7 9 9 8 6 6 8 13 17 19 20 16 12 9 7 8 10 10 7 5 5 5 2 3 9 15 16 14 14 14 12 13 13 12 11 7 4 4 5
10 8 5 3 5 7 8 7 6 5 7 10 14 17 18 15 11 9 8 9 10 11 8 6 5 5 3 3 7 9 11 14 15 14 13 10 10 11 11 8 5 2 5
11 10 7 4 3 5 7 6 5 4 4 7 10 15 17 16 13 11 10 11 11 11 10 8 6 5 3 3 6 10 12 10 8 8 4 3 4 6 2 7 6 6 5
12 12 9 6 5 4 5 6 5 4 4 4 7 12 16 16 14 13 11 11 11 12 12 10 9 8 7 8 11 13 12 9 5 6 6 5 4 4 3 4 6 7 5
11 13 12 9 6 5 5 7 8 6 5 5 6 8 12 15 13 11 11 12 11 11 11 11 10 10 11 11 11 13 14 13 10 9 9 9 8 7 6 6 8 8 8
12 13 13 11 9 8 8 9 10 8 6 7 7 8 9 12 13 11 9 12 13 12 11 10 11 11 13 15 14 14 14 13 12 11 12 12 12 10 8 8 9 9 9
14 13 13 12 11 10 10 11 12 12 9 9 8 8 8 11 14 13 11 11 14 15 13 9 10 12 14 18 19 18 16 15 15 15 16 15 15 13 12 11 11 11 10
13 13 13 13 13 12 12 12 13 14 12 11 10 10 9 11 14 15 14 11 13 16 14 10 10 13 14 15 17 18 18 20 21 20 20 20 19 18 17 15 14 13 12
12 14 14 14 14 14 14 14 15 16 15 14 13 12 11 11 13 14 13 12 12 15 15 12 11 14 14 13 15 17 19 20 21 21 22 22 22 21 21 19 17 16 14
16 17 18 17 17 17 16 16 17 18 16 16 15 14 12 11 12 15 16 15 14 14 15 14 12 15 16 15 15 19 20 19 19 20 20 19 18 19 20 20 18 17 16
17 18 18 19 19 18 17 16 17 19 18 17 16 15 12 11 12 15 15 17 19 17 14 13 12 13 19 19 17 20 20 18 18 18 19 19 18 18 19 20 19 17 16
14 16 17 17 16 15 14 15 17 19 18 17 16 15 14 13 13 14 14 20 23 19 14 14 15 13 16 21 19 17 18 19 17 19 19 19 19 19 19 21 20 17 16
14 14 17 19 17 16 15 16 17 19 19 17 15 16 16 17 16 14 14 21 24 23 18 14 13 16 16 20 21 17 16 18 17 17 18 18 17 17 18 20 21 18 17
18 17 18 20 20 19 18 17 18 18 17 16 14 15 15 15 15 15 20 22 24 24 23 21 17 16 19 20 22 20 17 17 18 18 18 18 17 17 17 19 20 19 19
19 19 18 20 18 18 18 18 19 17 16 15 15 13 14 16 19 22 26 25 24 25 26 24 20 16 19 22 23 23 19 18 18 19 18 18 17 17 17 19 20 19 20
20 20 18 20 20 21 21 23 20 17 13 12 13 14 15 18 21 25 27 25 24 25 26 25 24 20 20 23 24 24 23 19 19 19 19 20 20 18 17 18 21 21 21
22 24 20 22 23 23 22 22 22 16 11 12 15 17 20 23 25 26 27 26 25 24 25 27 26 23 22 24 23 25 25 19 19 20 19 19 21 20 19 19 21 23 25
24 26 23 21 21 22 23 22 18 13 12 14 18 21 22 24 25 26 25 24 23 22 24 26 27 23 23 26 26 25 23 21 18 20 19 18 20 21 21 22 22 23 26
28 27 24 20 20 22 23 22 20 17 16 17 20 24 27 27 26 23 22 23 22 22 24 25 26 23 22 28 30 29 26 21 18 19 19 17 17 18 19 20 21 22 26
29 28 20 23 27 25 22 19 16 15 19 21 22 24 26 27 24 23 23 24 24 24 24 24 22 24 24 29 30 28 25 24 22 19 18 16 14 15 15 16 19 21 22
Wind_Direction
35 30 28 27 26 35 50 52 42 38 34 30 29 26 24 20 21 24 30 14 352 326 306 279 246 232 210 213 216 218 224 232 236 205 219 204 204 224 235 233 236 236 236
29 23 24 22 21 23 37 49 39 35 30 26 21 18 21 21 22 25 38 26 8 345 336 311 246 217 211 214 212 215 222 218 216 204 227 158 188 231 231 226 230 234 228
16 15 18 20 20 20 29 44 34 29 28 24 18 17 18 21 18 12 20 23 1 350 355 346 287 221 220 222 217 213 218 220 219 224 234 220 230 253 235 214 214 222 222
336 4 13 19 20 23 28 31 28 24 24 21 18 18 18 18 13 2 2 2 354 346 1 358 309 234 225 224 217 212 214 223 234 243 239 228 228 239 224 216 216 217 226
281 327 3 19 23 26 25 22 18 18 22 20 18 17 20 21 13 1 354 355 351 343 344 7 284 256 236 223 216 209 212 221 235 242 228 229 234 241 225 219 195 195 225
247 276 347 15 21 24 19 13 4 10 19 20 16 17 21 24 20 7 349 346 345 337 331 342 12 311 250 219 218 211 217 231 235 234 226 232 241 221 216 216 210 211 231
237 247 295 5 20 23 13 0 357 2 19 19 15 15 18 21 18 7 351 334 334 335 330 326 334 341 331 215 211 212 220 240 247 244 242 249 240 216 209 212 208 225 231
232 234 252 331 16 26 12 351 342 351 18 19 13 14 15 16 11 0 343 330 326 326 330 322 313 314 306 197 173 195 230 248 253 241 249 249 233 221 209 207 207 200 207
234 235 251 275 337 14 10 356 337 332 2 17 18 23 19 16 5 356 339 327 326 319 319 313 295 287 285 216 209 216 231 246 224 206 192 232 281 247 201 211 213 226 210
233 234 246 262 288 332 354 356 342 321 326 355 14 23 25 20 8 359 350 336 329 323 312 303 285 258 236 213 208 205 205 218 191 189 199 230 249 283 277 242 231 234 229
239 233 239 247 256 280 309 334 346 332 319 322 354 2 20 25 16 6 -0 356 343 328 317 304 282 262 238 226 218 221 223 224 216 226 235 238 244 257 269 268 261 251 241
239 235 237 239 245 263 283 298 313 325 315 312 332 351 6 20 18 9 358 356 351 336 318 305 288 267 242 234 229 232 235 234 231 233 237 239 245 253 261 269 272 272 256
245 242 233 229 238 252 272 284 291 301 306 303 312 328 358 13 14 8 353 341 346 346 333 317 283 266 248 237 234 234 239 238 237 239 242 245 250 253 258 263 267 272 269
252 241 237 236 243 258 274 283 285 288 295 296 306 316 336 360 4 5 356 341 342 341 337 324 280 267 259 249 244 243 244 243 243 244 245 246 248 253 259 259 257 262 268
246 236 234 239 250 261 272 281 284 283 283 288 298 305 322 344 349 351 351 347 343 340 334 319 287 271 264 253 248 248 249 249 247 246 247 248 250 255 257 254 246 251 258
247 238 239 244 252 259 268 275 278 279 280 281 285 295 307 326 334 339 341 350 347 343 335 327 296 271 265 256 254 255 254 255 252 248 247 247 248 250 249 244 241 246 253
256 251 249 257 263 268 272 274 276 277 277 274 279 288 292 306 317 323 328 340 336 336 334 324 298 272 263 257 252 254 254 254 255 249 245 247 251 254 252 245 241 246 251
270 267 260 260 262 265 271 274 276 277 275 271 277 286 285 291 294 295 312 329 324 318 322 319 303 277 257 257 255 250 249 252 249 249 251 253 254 253 245 240 242 245 244
271 264 263 266 267 269 271 275 275 275 276 276 283 285 289 296 289 280 310 316 306 307 309 300 287 276 261 255 256 250 244 252 247 247 250 247 249 245 234 229 238 242 242
271 270 271 272 271 267 269 270 271 273 279 286 290 287 292 301 294 277 300 300 295 294 297 293 279 262 261 255 251 248 246 247 241 243 243 239 239 235 230 224 230 236 236
266 269 276 282 274 267 263 267 276 281 293 298 298 295 297 303 302 291 295 298 290 284 284 282 272 258 252 253 249 247 247 249 244 240 239 232 222 223 222 219 224 228 225
266 270 269 272 268 265 268 276 280 284 290 296 298 298 298 299 297 290 289 288 282 277 279 282 279 268 247 248 252 248 245 243 245 241 235 228 217 215 223 221 222 222 217
263 267 268 270 272 274 277 283 284 283 287 292 299 305 304 303 301 292 289 288 285 283 278 274 272 263 246 241 246 243 242 233 237 237 233 224 218 216 225 230 227 223 217
253 263 264 263 269 273 278 279 278 284 294 302 307 306 303 301 299 297 296 293 290 288 279 271 268 264 246 238 242 239 236 234 229 231 230 221 217 218 224 232 235 228 220
246 248 252 258 266 270 272 277 285 294 303 306 308 309 308 306 302 296 296 291 292 290 280 268 261 263 253 243 247 247 236 228 213 216 225 220 216 218 221 226 233 231 224
256 250 239 261 266 267 268 274 279 293 303 307 309 307 305 303 296 293 295 293 294 291 279 272 263 256 251 248 247 249 239 225 208 213 223 221 217 221 223 222 226 229 225
Height
5896 5895 5894 5894 5892 5891 5891 5890 5889 5888 5886 5885 5884 5884 5883 5882 5880 5879 5878 5878 5877 5876 5875 5876 5875 5875 5877 5879 5882 5884 5884 5885 5887 5888 5891 5892 5893 5895 5895 5896 5897 5899 5899
5897 5897 5896 5895 5894 5893 5892 5891 5890 5890 5888 5886 5885 5884 5883 5882 5881 5880 5879 5879 5878 5876 5876 5875 5874 5874 5876 5879 5882 5884 5884 5885 5887 5888 5890 5890 5892 5894 5893 5894 5896 5897 5898
5898 5898 5897 5896 5895 5894 5893 5892 5892 5891 5890 5887 5886 5884 5883 5882 5881 5879 5879 5878 5877 5876 5876 5874 5873 5873 5876 5879 5882 5884 5884 5885 5886 5888 5889 5890 5891 5891 5892 5893 5895 5897 5897
5899 5899 5898 5897 5895 5894 5893 5893 5893 5892 5890 5889 5887 5885 5883 5882 5881 5880 5879 5878 5877 5877 5876 5875 5873 5873 5874 5877 5880 5883 5884 5885 5887 5888 5889 5890 5891 5891 5892 5894 5894 5895 5896
5899 5900 5899 5898 5896 5895 5894 5893 5893 5892 5891 5890 5888 5886 5884 5882 5882 5881 5880 5879 5878 5877 5876 5876 5874 5873 5873 5874 5877 5882 5884 5885 5887 5888 5889 5890 5891 5891 5892 5892 5893 5893 5893
5900 5900 5900 5899 5897 5895 5894 5894 5893 5892 5892 5891 5889 5886 5884 5882 5881 5881 5880 5879 5878 5876 5875 5875 5875 5874 5872 5872 5876 5880 5883 5885 5887 5887 5888 5889 5890 5890 5890 5891 5892 5892 5893
5898 5899 5899 5899 5897 5896 5895 5894 5893 5892 5892 5891 5889 5887 5884 5883 5881 5880 5880 5879 5877 5876 5875 5874 5874 5874 5872 5872 5875 5879 5883 5885 5886 5886 5886 5888 5888 5889 5890 5891 5891 5891 5892
5897 5898 5899 5898 5897 5897 5896 5895 5894 5893 5892 5891 5889 5887 5884 5883 5882 5880 5879 5878 5878 5876 5875 5874 5874 5874 5873 5874 5876 5880 5882 5883 5883 5884 5886 5887 5887 5888 5889 5890 5891 5891 5892
5896 5897 5898 5898 5897 5897 5896 5895 5895 5894 5893 5892 5890 5887 5885 5883 5881 5880 5879 5878 5877 5876 5875 5874 5874 5874 5874 5875 5877 5879 5881 5881 5881 5883 5885 5886 5887 5887 5888 5888 5889 5891 5892
5896 5896 5896 5897 5897 5897 5896 5896 5895 5894 5893 5892 5889 5888 5886 5884 5882 5880 5878 5877 5877 5876 5874 5874 5873 5874 5875 5876 5877 5879 5880 5880 5881 5883 5884 5886 5887 5887 5888 5889 5889 5890 5891
5893 5894 5895 5896 5896 5896 5896 5895 5895 5894 5893 5891 5889 5887 5885 5884 5882 5880 5878 5876 5875 5875 5873 5872 5871 5872 5874 5875 5876 5878 5878 5879 5881 5882 5884 5885 5886 5887 5887 5887 5888 5889 5890
5891 5891 5892 5894 5895 5895 5895 5895 5894 5893 5892 5890 5888 5886 5884 5883 5881 5879 5877 5875 5873 5872 5872 5871 5870 5870 5872 5873 5874 5875 5876 5878 5879 5881 5883 5884 5885 5885 5886 5886 5886 5887 5888
5890 5890 5891 5891 5892 5893 5893 5893 5892 5891 5890 5888 5886 5884 5882 5881 5880 5878 5876 5875 5873 5870 5869 5868 5868 5867 5868 5869 5871 5873 5874 5876 5877 5879 5881 5882 5883 5883 5884 5884 5885 5885 5886
5888 5889 5890 5889 5890 5890 5891 5890 5890 5889 5888 5886 5884 5882 5881 5880 5878 5877 5875 5873 5872 5869 5866 5865 5863 5863 5864 5866 5869 5870 5871 5872 5874 5876 5878 5879 5880 5881 5881 5882 5882 5882 5883
5887 5887 5888 5888 5888 5888 5889 5888 5887 5886 5885 5883 5882 5880 5879 5878 5877 5875 5874 5871 5870 5867 5864 5864 5862 5860 5861 5863 5866 5867 5867 5868 5870 5872 5874 5876 5877 5878 5878 5879 5879 5880 5880
5886 5885 5884 5884 5885 5885 5885 5884 5883 5882 5881 5880 5879 5878 5877 5876 5874 5872 5870 5868 5867 5866 5862 5860 5860 5858 5858 5858 5861 5863 5863 5865 5866 5867 5868 5871 5872 5873 5873 5874 5876 5876 5877
5882 5882 5881 5880 5881 5881 5881 5880 5879 5878 5877 5876 5875 5874 5874 5873 5871 5869 5867 5867 5865 5863 5860 5857 5854 5857 5856 5855 5855 5857 5859 5860 5862 5863 5863 5865 5867 5869 5870 5871 5872 5873 5873
5879 5878 5878 5877 5877 5877 5877 5877 5875 5874 5873 5872 5871 5871 5870 5868 5867 5866 5864 5864 5863 5860 5856 5855 5851 5850 5853 5853 5852 5852 5855 5856 5856 5858 5859 5860 5862 5864 5865 5868 5868 5870 5870
5875 5876 5875 5875 5874 5874 5873 5872 5871 5870 5869 5869 5868 5867 5866 5864 5862 5861 5860 5859 5858 5854 5853 5853 5850 5847 5847 5848 5849 5850 5851 5851 5852 5854 5855 5856 5857 5859 5861 5863 5865 5867 5868
5869 5870 5871 5871 5870 5870 5869 5869 5869 5867 5865 5864 5863 5862 5862 5860 5858 5856 5855 5855 5854 5850 5848 5848 5846 5843 5842 5842 5843 5845 5846 5847 5849 5850 5851 5852 5853 5854 5856 5859 5862 5864 5865
5864 5864 5864 5865 5866 5865 5865 5865 5865 5863 5861 5861 5859 5858 5857 5856 5854 5852 5850 5849 5848 5846 5844 5842 5841 5840 5838 5837 5837 5838 5840 5842 5845 5846 5847 5849 5849 5851 5852 5854 5857 5859 5861
5857 5858 5858 5858 5860 5859 5859 5858 5859 5858 5856 5855 5853 5852 5851 5849 5847 5845 5843 5841 5840 5838 5837 5836 5835 5836 5834 5834 5833 5833 5834 5838 5840 5843 5843 5845 5845 5847 5849 5850 5852 5854 5857
5851 5851 5851 5850 5852 5852 5853 5854 5854 5853 5852 5851 5849 5847 5845 5842 5841 5839 5837 5834 5833 5833 5831 5829 5828 5829 5830 5830 5830 5828 5829 5831 5834 5838 5840 5840 5841 5843 5846 5847 5848 5850 5853
5845 5844 5844 5844 5845 5846 5847 5849 5849 5847 5847 5845 5843 5840 5838 5837 5835 5833 5831 5828 5826 5824 5822 5821 5822 5822 5823 5825 5825 5823 5824 5826 5829 5833 5836 5836 5837 5839 5841 5843 5844 5845 5848
5837 5835 5835 5835 5837 5840 5842 5843 5844 5843 5841 5838 5835 5833 5832 5829 5827 5826 5824 5822 5818 5817 5815 5813 5814 5816 5817 5819 5820 5819 5820 5821 5824 5827 5831 5832 5833 5835 5836 5838 5840 5842 5844
5830 5831 5828 5826 5829 5834 5836 5837 5838 5838 5835 5832 5830 5828 5826 5824 5822 5820 5817 5815 5813 5811 5808 5808 5808 5808 5809 5812 5814 5814 5815 5817 5819 5823 5827 5828 5829 5832 5833 5834 5835 5837 5840